[[{"header":{"parameterUnit":"m.s-1","parameterCategory":1,"la1":30.2991,"la2":30.254,"lo1":-89.0895,"lo2":-89.0444,"dy":0.0017,"dx":0.0017,"nx":28,"ny":28,"refTime":"2024-04-30T09:00:00:Z","depth":0,"parameterNumber":2,"parameterNumberName":"U-component_of_WINDS"},"data":[0,0,0,0,0,0,0,0,0,0,0,0,0,0,0,0,0,0,0,0,0,0,0,0,0,0,0,0,0,0,0,0,0,0,0,0,0,0,0,0,0,0,0,0,0,0,0,0,0,0,0,0,0,0,0,0,0,0,-1.8675,-1.8675,0,-1.8643,-1.8642,-1.8642,-1.8593,-1.8592,-1.8591,-1.8591,-1.8557,-1.8557,-1.8557,0,0,0,0,0,0,0,0,0,0,0,0,0,-1.8694,-1.8694,-1.8675,-1.8675,-1.8674,-1.8643,-1.8642,-1.8642,-1.8593,-1.8592,-1.8591,-1.859,-1.8557,-1.8557,-1.8557,0,0,0,0,0,0,0,0,0,0,0,0,0,-1.8676,-1.8694,-1.8675,-1.8646,-1.8643,-1.8643,-1.8642,-1.8642,-1.8593,-1.8592,-1.8591,-1.859,-1.8557,-1.8557,-1.8557,-1.8582,0,0,-1.8556,-1.8556,0,0,0,0,0,0,0,0,-1.8677,-1.8676,-1.8651,-1.8648,-1.8645,-1.8621,-1.8637,-1.8621,-1.8594,-1.8612,-1.8591,-1.8589,-1.8579,-1.8577,-1.8574,-1.858,-1.8578,-1.8556,-1.8556,-1.8556,-1.8556,0,0,0,0,0,0,0,-1.8679,-1.8677,-1.8662,-1.8651,-1.8647,-1.8635,-1.8631,-1.8633,-1.8603,-1.8611,-1.8607,-1.8604,-1.8577,-1.8574,-1.8573,-1.8578,-1.8556,-1.8556,-1.8556,-1.8556,-1.8602,-1.8604,0,0,0,0,0,0,-1.8684,-1.8678,-1.8663,-1.8661,-1.8658,-1.8635,-1.8631,-1.863,-1.8603,-1.8598,-1.8605,-1.8602,-1.8575,-1.8573,-1.8571,-1.8598,-1.8556,-1.8556,-1.8556,-1.8601,-1.8603,-1.8604,0,0,0,0,0,0,-1.8685,-1.8683,-1.8664,-1.8669,-1.8665,-1.8636,-1.8635,-1.863,-1.8626,-1.8599,-1.8593,-1.8607,-1.8574,-1.8571,-1.8579,-1.8596,-1.8556,-1.8556,-1.86,-1.8602,-1.8604,-1.8653,0,0,0,0,0,0,-1.8686,-1.8684,-1.8693,-1.8669,-1.8665,-1.8673,-1.8636,-1.863,-1.8626,-1.8622,-1.86,-1.8595,-1.8573,-1.858,-1.8579,-1.8595,-1.8556,-1.8598,-1.8601,-1.8603,-1.8649,-1.8656,-1.8662,0,0,0,0,0,-1.8686,-1.8708,-1.8694,-1.8692,-1.8676,-1.8674,-1.8672,-1.8646,-1.8628,-1.8637,-1.8619,-1.8595,-1.8595,-1.8581,-1.858,-1.8596,-1.8597,-1.86,-1.8603,-1.8647,-1.8655,-1.8662,0,0,0,0,0,0,-1.8735,-1.8705,-1.8688,-1.8703,-1.8692,-1.8666,-1.8677,-1.8656,-1.865,-1.8645,-1.8614,-1.8609,-1.8621,-1.8609,-1.8595,-1.8619,-1.8592,-1.8595,-1.8626,-1.8633,-1.8639,-1.8642,-1.8555,0,0,0,0,0,-1.8747,-1.8748,-1.8722,-1.8737,-1.8733,-1.8706,-1.8704,-1.8685,-1.8672,-1.8667,-1.865,-1.8638,-1.8635,-1.8634,-1.8629,-1.8648,-1.8642,-1.8658,-1.8665,-1.867,-1.8673,-1.8681,-1.8688,-1.8614,-1.8614,-1.8614,0,0,-1.8773,-1.8756,-1.8759,-1.8747,-1.8736,-1.8737,-1.8702,-1.8705,-1.8706,-1.8667,-1.8674,-1.8661,-1.8645,-1.8659,-1.8663,-1.8649,-1.8692,-1.8674,-1.8678,-1.8678,-1.8685,-1.8692,-1.8698,-1.8616,-1.8616,-1.8615,0,0,-1.882,-1.8808,-1.8819,-1.8809,-1.8793,-1.8775,-1.8778,-1.8756,-1.8746,-1.8752,-1.8723,-1.8723,-1.8719,-1.8709,-1.8703,-1.8747,-1.8724,-1.8746,-1.8779,-1.8787,-1.8793,-1.8798,-1.8813,-1.8819,-1.8749,-1.8749,-1.875,0,-1.8854,-1.8855,-1.8828,-1.8833,-1.8828,-1.8794,-1.8805,-1.8796,-1.878,-1.8777,-1.8762,-1.8755,-1.8742,-1.8752,-1.8763,-1.876,-1.8762,-1.8748,-1.8794,-1.8799,-1.8803,-1.8817,-1.8823,-1.8752,-1.8752,-1.8752,-1.8751,0,-1.8897,-1.8899,-1.891,-1.8895,-1.8891,-1.89,-1.8873,-1.8873,-1.8855,-1.8839,-1.8845,-1.8828,-1.882,-1.8821,-1.8803,-1.8829,-1.882,-1.88,-1.8773,-1.8814,-1.8826,-1.8831,-1.8756,-1.8755,-1.8754,-1.8754,0,0,-1.8973,-1.8943,-1.8948,-1.894,-1.892,-1.8921,-1.8928,-1.892,-1.892,-1.891,-1.8914,-1.8911,-1.8892,-1.8886,-1.8867,-1.8874,-1.891,-1.8853,-1.8852,-1.8864,-1.8936,-1.8951,-1.8957,-1.8895,-1.8896,-1.8897,-1.8937,0,-1.9016,-1.9026,-1.9001,-1.9017,-1.9018,-1.8985,-1.8991,-1.8979,-1.8964,-1.8962,-1.8946,-1.8944,-1.892,-1.8916,-1.8922,-1.8904,-1.8924,-1.8901,-1.8898,-1.8898,-1.8902,-1.8964,-1.898,-1.9019,-1.8942,-1.8943,-1.8943,0,-1.9067,-1.906,-1.9076,-1.9054,-1.9054,-1.9059,-1.905,-1.9049,-1.9035,-1.9023,-1.9017,-1.8994,-1.8999,-1.8973,-1.8978,-1.8964,-1.8961,-1.8952,-1.8953,-1.8951,-1.8923,-1.8963,-1.9031,-1.9036,-1.8951,-1.895,-1.895,0,-1.9121,-1.9115,-1.9123,-1.9118,-1.9094,-1.9098,-1.9088,-1.9073,-1.9069,-1.9061,-1.9059,-1.9051,-1.9047,-1.9042,-1.9018,-1.9001,-1.9026,-1.8998,-1.9016,-1.9017,-1.9022,-1.9022,-1.9089,-1.9022,-1.9022,-1.9022,-1.9021,0,-1.917,-1.9181,-1.9147,-1.9152,-1.9163,-1.9135,-1.9147,-1.9133,-1.912,-1.9122,-1.9093,-1.9095,-1.9064,-1.9062,-1.9044,-1.9051,-1.9049,-1.904,-1.9035,-1.9042,-1.9043,-1.9039,-1.9036,-1.9023,-1.9023,-1.9022,-1.9022,0,-1.9232,-1.9209,-1.9216,-1.9193,-1.9187,-1.9196,-1.9176,-1.9179,-1.9163,-1.9165,-1.9164,-1.9138,-1.9135,-1.9111,-1.9102,-1.909,-1.9104,-1.9093,-1.9109,-1.9105,-1.9124,-1.9122,-1.9191,-1.9198,-1.9127,-1.9127,-1.9128,0,-1.9265,-1.9272,-1.925,-1.9249,-1.924,-1.924,-1.9236,-1.9209,-1.9207,-1.9191,-1.9197,-1.9191,-1.9185,-1.9182,-1.9162,-1.9155,-1.9144,-1.9169,-1.9143,-1.915,-1.9144,-1.9143,-1.9144,-1.9174,-1.9175,-1.9176,-1.9176,0,-1.9326,-1.9314,-1.9311,-1.9303,-1.93,-1.9292,-1.9283,-1.9284,-1.9254,-1.9253,-1.925,-1.9245,-1.9236,-1.9231,-1.9221,-1.921,-1.9188,-1.9185,-1.9188,-1.9196,-1.9204,-1.9199,-1.9123,-1.9183,-1.9182,-1.9182,-1.9181,-1.9181,-1.9373,-1.9379,-1.9363,-1.936,-1.9351,-1.9343,-1.9345,-1.9329,-1.9326,-1.9316,-1.9301,-1.93,-1.9285,-1.9269,-1.926,-1.9258,-1.9245,-1.9251,-1.9252,-1.9254,-1.9257,-1.9205,-1.9256,-1.9256,-1.9256,-1.9256,-1.9255,0,-1.9433,-1.9421,-1.9419,-1.9407,-1.9404,-1.9384,-1.9373,-1.9372,-1.9372,-1.936,-1.9355,-1.9351,-1.9346,-1.9325,-1.9318,-1.9321,-1.931,-1.932,-1.9319,-1.9316,-1.927,-1.9267,-1.9328,-1.9328,-1.9328,-1.9328,-1.9328,-1.9328,-1.9463,-1.947,-1.9457,-1.9459,-1.9448,-1.9447,-1.9442,-1.9434,-1.9425,-1.9422,-1.9418,-1.9404,-1.9389,-1.938,-1.9375,-1.9369,-1.9367,-1.938,-1.937,-1.9327,-1.932,-1.9313,-1.931,-1.938,-1.938,-1.9417,-1.9417,-1.9418]},{"header":{"parameterUnit":"m.s-1","parameterCategory":1,"la1":30.2991,"la2":30.254,"lo1":-89.0895,"lo2":-89.0444,"dy":0.0017,"dx":0.0017,"nx":28,"ny":28,"refTime":"2024-04-30T09:00:00:Z","depth":0,"parameterNumber":3,"parameterNumberName":"V-component_of_WINDS"},"data":[0,0,0,0,0,0,0,0,0,0,0,0,0,0,0,0,0,0,0,0,0,0,0,0,0,0,0,0,0,0,0,0,0,0,0,0,0,0,0,0,0,0,0,0,0,0,0,0,0,0,0,0,0,0,0,0,0,0,1.5265,1.5265,0,1.5232,1.5232,1.5231,1.5188,1.5187,1.5186,1.5186,1.5151,1.5151,1.515,0,0,0,0,0,0,0,0,0,0,0,0,0,1.529,1.529,1.5265,1.5265,1.5264,1.5232,1.5232,1.5231,1.5188,1.5187,1.5186,1.5185,1.5151,1.5151,1.515,0,0,0,0,0,0,0,0,0,0,0,0,0,1.527,1.529,1.5265,1.5239,1.5236,1.5232,1.5232,1.5231,1.5188,1.5187,1.5186,1.5185,1.5151,1.5151,1.515,1.517,0,0,1.5149,1.5149,0,0,0,0,0,0,0,0,1.5271,1.5269,1.5243,1.5241,1.5237,1.5213,1.5228,1.521,1.5188,1.5206,1.5186,1.5184,1.5172,1.517,1.5166,1.5168,1.5166,1.5149,1.5149,1.5149,1.5149,0,0,0,0,0,0,0,1.5273,1.5271,1.5252,1.5243,1.5239,1.5228,1.5224,1.5224,1.5196,1.5205,1.5201,1.5198,1.5171,1.5167,1.5165,1.5166,1.5149,1.5149,1.5149,1.5148,1.5182,1.5183,0,0,0,0,0,0,1.5278,1.5272,1.5253,1.5251,1.5252,1.5229,1.5224,1.5222,1.5196,1.5191,1.5199,1.5196,1.5168,1.5166,1.5164,1.5185,1.5149,1.5148,1.5148,1.5181,1.5183,1.5184,0,0,0,0,0,0,1.5279,1.5277,1.5254,1.5261,1.5257,1.523,1.5227,1.5222,1.5218,1.5191,1.5186,1.52,1.5167,1.5164,1.5169,1.5183,1.5148,1.5148,1.518,1.5182,1.5183,1.5228,0,0,0,0,0,0,1.528,1.5277,1.5285,1.5261,1.5257,1.526,1.5228,1.5222,1.5217,1.5213,1.5191,1.5187,1.5166,1.5169,1.5168,1.5182,1.5148,1.5178,1.5181,1.5183,1.5225,1.5231,1.5236,0,0,0,0,0,1.5281,1.5298,1.5285,1.5283,1.5265,1.5261,1.5258,1.5235,1.5219,1.5226,1.5209,1.5187,1.5182,1.517,1.5169,1.5183,1.5177,1.518,1.5183,1.5222,1.523,1.5236,0,0,0,0,0,0,1.5323,1.5294,1.528,1.529,1.5278,1.5254,1.5262,1.5243,1.5235,1.5232,1.5202,1.5198,1.5206,1.5194,1.5182,1.52,1.5176,1.5179,1.5207,1.5214,1.5219,1.5222,1.5147,0,0,0,0,0,1.5334,1.5333,1.5308,1.5319,1.5314,1.5289,1.5287,1.5269,1.5256,1.5251,1.5234,1.5222,1.5217,1.5215,1.5209,1.5223,1.5218,1.5232,1.5237,1.5242,1.5244,1.5251,1.5257,1.5192,1.5192,1.5192,0,0,1.5356,1.534,1.5341,1.5328,1.5317,1.5317,1.5285,1.5286,1.5286,1.5251,1.5254,1.5242,1.5226,1.5235,1.5238,1.5226,1.5261,1.5245,1.5249,1.5249,1.5255,1.5261,1.5266,1.5194,1.5194,1.5193,0,0,1.5396,1.5384,1.5392,1.5382,1.5366,1.5349,1.5351,1.5329,1.532,1.5323,1.5297,1.5296,1.5288,1.5279,1.5273,1.531,1.529,1.5309,1.5337,1.5345,1.535,1.5354,1.5368,1.5373,1.5311,1.5311,1.5311,0,1.5425,1.5424,1.5399,1.5402,1.5397,1.5365,1.5374,1.5365,1.5348,1.5345,1.5331,1.5322,1.5309,1.5316,1.5325,1.5321,1.5323,1.5311,1.5351,1.5355,1.5359,1.5372,1.5377,1.5314,1.5313,1.5313,1.5313,0,1.5461,1.5461,1.547,1.5455,1.545,1.5456,1.5432,1.543,1.5414,1.5399,1.5402,1.5386,1.5377,1.5377,1.536,1.5382,1.5375,1.5357,1.5332,1.5368,1.538,1.5384,1.5317,1.5316,1.5316,1.5315,0,0,1.5527,1.5498,1.5502,1.5495,1.5475,1.5474,1.5479,1.547,1.547,1.5459,1.5463,1.5458,1.5441,1.5434,1.5416,1.5423,1.5454,1.5403,1.5403,1.5414,1.5477,1.5491,1.5497,1.544,1.5441,1.5442,1.5479,0,1.5563,1.557,1.5547,1.5559,1.5559,1.5529,1.5533,1.5522,1.5508,1.5505,1.5489,1.5487,1.5465,1.5461,1.5465,1.5449,1.5466,1.5446,1.5443,1.5443,1.5449,1.5503,1.5518,1.5553,1.5483,1.5484,1.5484,0,1.5607,1.5599,1.5611,1.5592,1.5591,1.5595,1.5585,1.5583,1.557,1.5559,1.5552,1.5532,1.5535,1.5512,1.5515,1.5502,1.55,1.5492,1.5492,1.5491,1.5466,1.5504,1.5564,1.557,1.5491,1.549,1.549,0,1.5654,1.5647,1.5653,1.5648,1.5625,1.5629,1.5619,1.5604,1.5601,1.5593,1.559,1.5583,1.5578,1.5573,1.5551,1.5536,1.5558,1.5532,1.5549,1.555,1.5555,1.5555,1.5616,1.5553,1.5553,1.5553,1.5553,0,1.5697,1.5706,1.5674,1.5679,1.5688,1.5662,1.5671,1.5659,1.5646,1.5647,1.5621,1.5623,1.5593,1.5592,1.5574,1.5581,1.5579,1.5571,1.5566,1.5573,1.5574,1.5571,1.5569,1.5554,1.5554,1.5554,1.5553,0,1.5752,1.5731,1.5736,1.5714,1.5709,1.5717,1.5698,1.5701,1.5685,1.5687,1.5686,1.5662,1.5659,1.5636,1.5628,1.5616,1.5629,1.5619,1.5634,1.5631,1.5649,1.5648,1.571,1.5718,1.565,1.565,1.5651,0,1.5781,1.5788,1.5766,1.5766,1.5757,1.5756,1.5753,1.5728,1.5725,1.571,1.5715,1.571,1.5705,1.5701,1.5683,1.5676,1.5666,1.5689,1.5665,1.5673,1.5667,1.5668,1.5668,1.5694,1.5695,1.5695,1.5696,0,1.5836,1.5825,1.5821,1.5814,1.5811,1.5804,1.5796,1.5796,1.5768,1.5767,1.5764,1.576,1.5752,1.5747,1.5737,1.5727,1.5707,1.5704,1.5707,1.5715,1.5723,1.572,1.5648,1.5702,1.5702,1.5701,1.5701,1.5701,1.5879,1.5883,1.5869,1.5866,1.5857,1.585,1.5852,1.5837,1.5834,1.5826,1.5811,1.581,1.5796,1.5782,1.5774,1.5772,1.5761,1.5766,1.5767,1.5769,1.5773,1.5723,1.577,1.577,1.577,1.577,1.577,0,1.5933,1.5922,1.592,1.5909,1.5906,1.5888,1.5878,1.5877,1.5877,1.5866,1.5861,1.5858,1.5853,1.5835,1.5828,1.5831,1.5822,1.583,1.583,1.5828,1.5784,1.5781,1.5838,1.5838,1.5838,1.5838,1.5838,1.5838,1.596,1.5967,1.5955,1.5957,1.5946,1.5946,1.5942,1.5935,1.5926,1.5924,1.592,1.5908,1.5894,1.5887,1.5882,1.5877,1.5876,1.5887,1.5879,1.5838,1.5831,1.5825,1.5823,1.5887,1.5887,1.5924,1.5924,1.5925]}]]